Location: Grand Rapids
(42.9630°N, 85.6680°W)
Time: 03:33:18
(UTC-04:00)

A-11 Canister half - Pass Details

Date: 04 June 2024
Orbit: 1524 x 1684 km, 47.3° (Epoch: 21 June)

Event Time Altitude Azimuth Distance (km) Brightness Sun altitude
Rises 02:35:38 0° 295° (WNW) 4,739 11.7 -23.3°
Reaches altitude 10° 02:38:59 10° 287° (WNW) 3,773 11.1 -23.2°
Maximum altitude 02:47:22 36° 226° (SW) 2,348 9.5 -22.8°
Enters shadow 02:48:54 34° 208° (SSW) 2,417 9.5 -22.7°
Drops below altitude 10° 02:56:01 10° 164° (SSE) 3,872 - -22.3°
Sets 02:59:31 0° 156° (SSE) 4,876 - -22.1°
